Terminal Aerodrome Forecast
Issued by NWS Charleston, SC

Home | Current Version | Previous Version | Text Only | Print | Product List | Glossary On
Versions: 1 2 3 4 5 6 7 8 9 10 11 12 13 14 15 16 17
000
FTUS42 KCHS 261136
TAFCHS
TAF
KCHS 261136Z 2612/2712 26010KT P6SM SCT007 WS010/29040KT
     FM261330 28013G20KT P6SM FEW012 SCT025
     FM261700 28018G27KT P6SM FEW040
     FM262200 28014G22KT P6SM VCTS BKN040CB
     FM270100 36013KT P6SM VCTS BKN040CB
     FM270300 01011KT P6SM SCT015 BKN040=

USA.gov is the U.S. government's official web portal to all federal, state and local government web resources and services.